| time (UTC) | temp F | wind direction | speed MPH | gust MPH | rain 1hr in | rain 24hr in | rain mn in | humidity % | barometer mb |
| 20260507231839 | 61 | 295 | 0.0 | 1.0 | 0.00 | 0.00 | 0.00 | 44 | 1014.3 |
| 20260507191818 | 63 | 271 | 0.0 | 4.0 | 0.00 | 0.00 | 0.00 | 48 | 1014.8 |
| 20260507190818 | 61 | 360 | 3.0 | 4.0 | 0.00 | 0.00 | 0.00 | 46 | 1014.9 |
| 20260507185818 | 60 | 20 | 2.0 | 3.0 | 0.00 | 0.00 | 0.00 | 46 | 1015.1 |
| 20260507184818 | 62 | 28 | 2.0 | 6.0 | 0.00 | 0.00 | 0.00 | 48 | 1015.1 |
| 20260507183818 | 61 | 321 | 0.0 | 8.0 | 0.00 | 0.00 | 0.00 | 44 | 1015.0 |
| 20260507182817 | 61 | 343 | 3.0 | 6.0 | 0.00 | 0.00 | 0.00 | 49 | 1015.3 |
| 20260507181818 | 60 | 296 | 2.0 | 5.0 | 0.00 | 0.00 | 0.00 | 48 | 1015.3 |
| 20260507180817 | 60 | 340 | 6.0 | 9.0 | 0.00 | 0.00 | 0.00 | 48 | 1015.4 |
| 20260507175817 | 60 | 50 | 1.0 | 8.0 | 0.00 | 0.00 | 0.00 | 48 | 1015.5 |
| 20260507174817 | 59 | 305 | 2.0 | 7.0 | 0.00 | 0.00 | 0.00 | 47 | 1015.7 |
| 20260507173817 | 59 | 36 | 3.0 | 7.0 | 0.00 | 0.00 | 0.00 | 50 | 1015.8 |
| 20260507172817 | 59 | 360 | 3.0 | 8.0 | 0.00 | 0.00 | 0.00 | 48 | 1015.9 |
| 20260507171817 | 59 | 286 | 3.0 | 4.0 | 0.00 | 0.00 | 0.00 | 49 | 1016.1 |
| 20260507170817 | 58 | 335 | 1.0 | 5.0 | 0.00 | 0.00 | 0.00 | 47 | 1016.2 |
| 20260507165817 | 58 | 312 | 2.0 | 6.0 | 0.00 | 0.00 | 0.00 | 47 | 1016.3 |
| 20260507164817 | 58 | 266 | 4.0 | 4.0 | 0.00 | 0.00 | 0.00 | 49 | 1016.2 |
| 20260507163817 | 58 | 289 | 4.0 | 5.0 | 0.00 | 0.00 | 0.00 | 45 | 1016.4 |
| 20260507162817 | 58 | 242 | 4.0 | 5.0 | 0.00 | 0.00 | 0.00 | 46 | 1016.4 |
| 20260507161817 | 58 | 286 | 2.0 | 11.0 | 0.00 | 0.00 | 0.00 | 48 | 1016.5 |
| 20260507160817 | 57 | 340 | 0.0 | 4.0 | 0.00 | 0.00 | 0.00 | 47 | 1016.6 |
| 20260507080833 | 42 | 326 | 0.0 | 0.0 | 0.00 | 0.01 | 0.00 | 90 | 1015.3 |
| 20260507075813 | 42 | 325 | 0.0 | 0.0 | 0.00 | 0.01 | 0.00 | 90 | 1015.1 |
| 20260507074813 | 42 | 360 | 0.0 | 0.0 | 0.00 | 0.01 | 0.00 | 90 | 1015.2 |
| 20260507073813 | 42 | 325 | 0.0 | 0.0 | 0.00 | 0.02 | 0.00 | 89 | 1015.0 |
| 20260507072813 | 42 | 327 | 0.0 | 0.0 | 0.00 | 0.03 | 0.00 | 89 | 1015.2 |
| 20260507071813 | 42 | 324 | 0.0 | 0.0 | 0.00 | 0.04 | 0.00 | 89 | 1015.1 |
| 20260507070832 | 43 | 323 | 0.0 | 0.0 | 0.00 | 0.06 | 0.00 | 89 | 1015.1 |
| 20260507065812 | 43 | 326 | 0.0 | 0.0 | 0.00 | 0.08 | 0.00 | 89 | 1015.1 |
| 20260507064812 | 44 | 323 | 0.0 | 0.0 | 0.00 | 0.10 | 0.00 | 89 | 1015.1 |
| 20260507063812 | 44 | 323 | 0.0 | 0.0 | 0.00 | 0.10 | 0.00 | 90 | 1015.2 |
| 20260507062812 | 44 | 330 | 0.0 | 1.0 | 0.00 | 0.10 | 0.00 | 90 | 1015.4 |
| 20260507061812 | 44 | 323 | 0.0 | 0.0 | 0.00 | 0.11 | 0.00 | 91 | 1015.2 |
| 20260507060812 | 43 | 325 | 0.0 | 0.0 | 0.00 | 0.12 | 0.00 | 92 | 1015.2 |
| 20260507055812 | 43 | 319 | 0.0 | 0.0 | 0.00 | 0.13 | 0.00 | 91 | 1015.3 |
| 20260507054812 | 43 | 313 | 0.0 | 0.0 | 0.00 | 0.16 | 0.00 | 91 | 1015.3 |
| 20260507014810 | 48 | 314 | 0.0 | 0.0 | 0.00 | 0.68 | 0.50 | 83 | 1014.9 |
| 20260507013809 | 48 | 311 | 0.0 | 0.0 | 0.00 | 0.70 | 0.50 | 83 | 1014.8 |
| 20260507012809 | 48 | 314 | 0.0 | 0.0 | 0.00 | 0.70 | 0.50 | 80 | 1014.7 |
| 20260507011809 | 49 | 313 | 0.0 | 0.0 | 0.00 | 0.71 | 0.50 | 79 | 1014.4 |